TELLICO Weather Reports


time (UTC)temp
C
wind
direction
speed
KPH
gust
KPH
rain 1hr
cm
rain 24hr
cm
rain mn
cm
humidity
%
barometer
mb
20260509031538 13 0 0.0 0.0 0.00 0.00 0.00 75 1014.1
20260509030040 13 0 0.0 0.0 0.00 0.00 0.00 74 1014.0
20260509024542 13 0 0.0 1.6 0.00 0.00 0.00 74 1014.2
20260509023045 13 0 0.0 0.0 0.00 0.00 0.00 73 1014.0
20260509021537 13 0 0.0 1.6 0.00 0.00 0.00 72 1014.0
20260509020044 14 0 0.0 0.0 0.00 0.00 0.00 71 1014.0
20260509014539 15 0 0.0 1.6 0.00 0.00 0.00 70 1013.8
20260509013057 15 0 0.0 0.0 0.00 0.00 0.00 68 1013.7
20260509011539 15 0 0.0 0.0 0.00 0.00 0.00 66 1013.7
20260509010037 16 0 0.0 1.6 0.00 0.00 0.00 63 1013.6
20260509004542 16 0 0.0 0.0 0.00 0.00 0.00 61 1013.6
20260509003055 17 0 0.0 0.0 0.00 0.00 0.00 62 1013.8
20260509001542 18 0 0.0 0.0 0.00 0.00 0.00 61 1013.7
20260509000039 18 0 0.0 0.0 0.00 0.00 0.00 59 1013.8
20260508234541 19 0 0.0 1.6 0.00 0.00 0.00 59 1013.9
20260508233037 19 0 0.0 0.0 0.00 0.00 0.00 59 1013.8
20260508231541 20 0 0.0 1.6 0.00 0.00 0.00 57 1013.7
20260508230044 20 0 0.0 3.2 0.00 0.00 0.00 55 1013.6
20260508224542 20 0 0.0 1.6 0.00 0.00 0.00 55 1013.5
20260508223039 20 0 0.0 1.6 0.00 0.00 0.00 54 1013.7
20260508221540 20 0 0.0 1.6 0.00 0.00 0.00 52 1013.8
20260508220037 21 0 0.0 4.8 0.00 0.00 0.00 46 1013.8
20260508214536 21 323 0.0 3.2 0.00 0.00 0.00 47 1014.0
20260508213037 21 323 1.6 4.8 0.00 0.00 0.00 43 1014.2
20260508211535 21 295 1.6 6.4 0.00 0.00 0.00 41 1014.2
20260508210036 21 0 0.0 4.8 0.00 0.00 0.00 38 1014.2
20260508204538 21 0 0.0 4.8 0.00 0.00 0.00 41 1014.0
20260508203046 22 0 0.0 3.2 0.00 0.00 0.00 39 1014.3
20260508201537 22 0 0.0 6.4 0.00 0.00 0.00 40 1014.4
20260508200038 22 0 0.0 4.8 0.00 0.00 0.00 41 1014.5
20260508194540 22 0 0.0 3.2 0.00 0.00 0.00 40 1014.7
20260508193043 22 0 0.0 4.8 0.00 0.00 0.00 41 1015.2
20260508191541 23 127 0.0 3.2 0.00 0.00 0.00 37 1015.5
20260508190043 22 132 0.0 3.2 0.00 0.00 0.00 41 1015.9
20260508184541 22 125 0.0 4.8 0.00 0.00 0.00 43 1016.1
20260508183041 22 0 1.6 4.8 0.00 0.00 0.00 42 1016.2
20260508181543 22 136 0.0 9.7 0.00 0.00 0.00 40 1016.6
20260508180039 22 0 0.0 3.2 0.00 0.00 0.00 44 1016.8
20260508174556 21 59 1.6 9.7 0.00 0.00 0.00 44 1016.5
20260508173035 21 153 0.0 11.3 0.00 0.00 0.00 47 1016.6
20260508171536 21 186 0.0 6.4 0.00 0.00 0.00 49 1017.1
20260508170040 20 115 3.2 9.7 0.00 0.00 0.00 46 1017.6
20260508164545 20 173 0.0 4.8 0.00 0.00 0.00 49 1017.8
20260508163105 18 0 1.6 9.7 0.00 0.00 0.00 49 1017.8
20260508161539 19 128 1.6 9.7 0.00 0.00 0.00 52 1018.4
20260508160037 19 119 0.0 6.4 0.00 0.00 0.00 52 1018.5
20260508154537 19 0 0.0 4.8 0.00 0.00 0.00 54 1018.4
20260508153040 18 0 0.0 4.8 0.00 0.00 0.00 56 1018.6
20260508151541 18 82 1.6 4.8 0.00 0.00 0.00 50 1018.8
20260508150037 18 122 1.6 6.4 0.00 0.00 0.00 59 1018.8
20260508144539 17 0 0.0 3.2 0.00 0.00 0.00 63 1018.8
20260508143042 17 0 0.0 6.4 0.00 0.00 0.00 72 1018.8
20260508141540 16 0 0.0 4.8 0.00 0.00 0.00 71 1019.0
20260508140038 15 169 0.0 4.8 0.00 0.00 0.00 73 1019.1
20260508134540 14 156 0.0 4.8 0.00 0.00 0.00 77 1019.1
20260508133044 13 0 0.0 4.8 0.00 0.00 0.00 83 1019.2
20260508131545 12 0 0.0 1.6 0.00 0.00 0.00 89 1019.0
20260508130037 11 0 0.0 1.6 0.00 0.00 0.00 94 1018.8
20260508124542 10 0 0.0 3.2 0.00 0.00 0.00 95 1018.8
20260508123039 8 0 0.0 0.0 0.00 0.00 0.00 95 1018.8
20260508121537 7 0 0.0 0.0 0.00 0.00 0.00 94 1018.8
20260508120037 6 0 0.0 0.0 0.00 0.00 0.00 93 1018.6
20260508114541 6 0 0.0 0.0 0.00 0.00 0.00 93 1018.4
20260508113048 6 0 0.0 0.0 0.00 0.00 0.00 92 1018.3
20260508111537 6 0 0.0 0.0 0.00 0.00 0.00 92 1018.1
20260508110052 6 0 0.0 0.0 0.00 0.00 0.00 92 1017.7
20260508104536 6 0 0.0 0.0 0.00 0.00 0.00 92 1017.7
20260508103040 6 0 0.0 0.0 0.00 0.00 0.00 92 1017.3
20260508101549 7 0 0.0 0.0 0.00 0.00 0.00 92 1017.3
20260508100039 7 0 0.0 0.0 0.00 0.00 0.00 92 1017.0
20260508094550 7 0 0.0 0.0 0.00 0.00 0.00 92 1017.1
20260508093052 7 0 0.0 0.0 0.00 0.00 0.00 92 1016.9
20260508091539 7 0 0.0 0.0 0.00 0.00 0.00 92 1017.0
20260508090057 7 0 0.0 0.0 0.00 0.00 0.00 92 1017.1
20260508084538 7 0 0.0 0.0 0.00 0.00 0.00 92 1017.1
20260508083037 7 0 0.0 0.0 0.00 0.00 0.00 92 1017.0
20260508081537 7 0 0.0 0.0 0.00 0.00 0.00 92 1017.0
20260508080040 7 0 0.0 0.0 0.00 0.00 0.00 91 1016.9
20260508074542 7 0 0.0 0.0 0.00 0.00 0.00 91 1017.1
20260508073038 8 0 0.0 0.0 0.00 0.00 0.00 91 1017.1
20260508071538 8 0 0.0 0.0 0.00 0.00 0.00 90 1017.1
20260508070042 8 0 0.0 0.0 0.00 0.00 0.00 90 1017.2
20260508064540 8 0 0.0 0.0 0.00 0.00 0.00 90 1017.1
20260508063037 8 0 0.0 0.0 0.00 0.00 0.00 90 1017.2
20260508061538 8 0 0.0 0.0 0.00 0.00 0.00 89 1017.2
20260508060041 8 0 0.0 0.0 0.00 0.00 0.00 89 1017.2
20260508054600 8 0 0.0 0.0 0.00 0.00 0.00 89 1017.1
20260508053032 8 0 0.0 0.0 0.00 0.00 0.00 89 1017.3
20260508051539 8 0 0.0 0.0 0.00 0.00 0.00 88 1017.1
20260508050040 9 0 0.0 0.0 0.00 0.00 0.00 88 1017.2
20260508044546 9 0 0.0 0.0 0.00 0.00 0.00 88 1017.2
20260508043038 9 0 0.0 0.0 0.00 0.00 0.00 87 1017.0
20260508041550 10 0 0.0 0.0 0.00 0.00 0.00 88 1016.7
20260508040043 10 0 0.0 0.0 0.00 0.00 0.00 88 1016.7
20260508034540 10 0 0.0 0.0 0.00 0.00 0.00 88 1016.6
20260508033039 10 0 0.0 0.0 0.00 0.00 0.00 88 1016.5